Location: Unspecified
(44.0704°N, 88.6889°W)
Time: 14:55:16
(UTC+02:00)

Transit 2A - Pass Details

Date: 17 June 2019
Orbit: 595 x 964 km, 66.7° (Epoch: 21 July)

Event Time Altitude Azimuth Distance (km) Brightness Sun altitude
Rises 10:13:30 0° 231° (SW) 3,617 - -15.5°
Reaches altitude 10° 10:16:09 10° 237° (WSW) 2,690 - -15.3°
Exits shadow 10:17:37 17° 243° (WSW) 2,208 7.9 -15.1°
Maximum altitude 10:22:14 46° 309° (NW) 1,269 7.1 -14.7°
Drops below altitude 10° 10:28:16 10° 23° (NNE) 2,656 10.1 -14.0°
Sets 10:30:53 0° 29° (NNE) 3,567 11.4 -13.8°
